{"data":{"norad_id":63768,"intl_designator":"2025-089T","name":"STARLINK-33844","alt_names":[],"object_type":"PAYLOAD","status":"ACTIVE","operator":null,"country":"US","launch_date":"2025-04-29","launch_site_code":"AFETR","launch_vehicle":null,"mission":null,"orbit_class":"UNKNOWN","rcs_meters":null,"size_class":null,"mass_kg":null,"dimensions":null,"purposes":["comms"],"wikipedia_slug":null,"has_3d_model":false,"image_url":null,"decayed_at":null,"tle_current":{"epoch":"2026-09-20T00:55:53.382720Z","epoch_age_seconds":189743,"freshness":"STALE","line1":"1 63768U 25089T   26263.03881230  .00010897  00000+0  40477-3 0  9997","line2":"2 63768  43.0004  27.4007 0002100 275.0411  85.0201 15.27593539 78680","mean_motion":15.27593539,"eccentricity":0.00021,"inclination_deg":43.0004,"raan_deg":27.4007,"arg_perigee_deg":275.0411,"mean_anomaly_deg":85.0201,"bstar":0.00040477,"rev_number":7868,"period_min":94.265913231255,"perigee_km":481.56771513575,"apogee_km":484.44939626915,"semimajor_km":6861.1455557024,"source":"CELESTRAK","updated_at":"2026-09-21T09:00:35.096219Z"}}}